Helicity
132 182 189 148 165 81 106 102 41 42 39 47 44 62 100 169 190 257 322 371 309 232 189 161 125 86 58 62 36 41 37 48 75 67 55 35 38 31 5 21 13 23 -15 -35
169 122 151 136 157 141 127 84 57 8 18 24 27 29 35 122 176 305 372 426 354 302 233 164 121 95 52 58 32 37 42 53 76 78 72 64 81 44 41 40 30 67 51 7
157 168 138 142 129 115 70 71 60 44 63 54 104 103 54 53 113 199 277 359 385 310 231 159 127 86 40 55 36 40 38 55 69 67 62 46 97 47 53 116 73 89 89 40
96 41 48 66 30 77 13 79 66 64 78 89 72 39 75 72 44 121 248 402 403 288 208 159 127 82 44 49 32 27 30 59 57 69 29 52 84 55 52 67 75 91 71 78
142 115 55 46 18 117 32 55 23 70 100 114 132 141 23 97 47 66 255 390 376 281 216 160 112 63 38 28 36 20 29 36 38 58 32 65 69 88 89 73 115 70 57 57
81 120 119 79 75 143 110 38 42 66 106 105 73 160 56 73 90 128 207 296 295 260 191 137 88 52 36 6 27 25 21 38 32 51 46 45 72 84 38 20 22 40 47 34
177 122 152 164 90 87 80 106 138 123 115 56 87 145 86 65 113 144 140 206 195 214 171 141 104 45 38 18 24 30 25 29 29 48 48 35 50 45 24 43 18 22 24 23
249 136 133 109 112 81 52 90 144 98 95 72 47 68 14 62 45 20 79 146 176 174 136 139 78 41 40 18 26 29 44 27 23 28 22 10 22 36 39 35 40 53 55 30
241 182 165 132 136 105 60 104 23 107 106 107 75 58 44 54 67 45 95 139 132 137 122 110 49 34 26 13 37 49 58 45 31 34 26 7 9 15 18 20 21 50 48 54
285 157 99 117 148 129 84 83 96 77 111 85 83 61 71 72 37 34 93 87 110 136 97 73 38 26 -0 -1 25 40 57 56 46 38 27 18 6 5 14 23 18 47 65 75
306 217 80 155 141 118 153 166 134 64 75 61 54 10 17 -6 -29 22 115 113 136 163 102 74 20 14 5 -8 38 41 52 51 42 43 34 21 10 5 18 36 34 30 46 49
305 209 157 81 117 99 69 123 133 115 92 130 59 34 20 -11 -33 -58 9 104 96 72 100 88 25 18 3 -1 37 58 53 48 37 30 24 28 18 17 28 41 46 39 37 56
322 214 207 193 136 104 69 56 105 163 170 133 58 54 80 29 -43 -67 32 120 88 92 87 83 44 33 15 2 21 44 58 51 48 36 23 28 28 21 20 36 45 46 60 72
190 179 148 98 87 119 86 107 86 122 134 150 44 82 94 8 -7 -18 -21 63 90 78 87 93 80 31 -3 14 14 30 35 45 56 57 50 32 27 20 16 23 35 41 46 44
141 130 96 96 36 110 89 102 146 153 123 183 13 28 29 -16 8 -24 -3 83 102 95 45 118 119 43 -17 11 4 13 30 50 53 58 64 52 31 15 2 3 13 22 33 26
220 146 118 138 130 93 78 34 107 128 197 264 146 31 67 65 16 9 14 73 79 123 103 78 53 84 31 2 19 9 36 31 49 50 61 54 42 25 3 -5 4 7 15 16
275 152 177 133 145 189 -13 24 102 164 203 221 137 30 160 123 12 9 21 26 71 138 179 118 168 105 44 46 17 20 27 24 37 40 51 60 56 42 19 5 4 9 11 14
288 201 205 152 236 193 147 82 169 165 196 273 170 137 191 63 -22 31 32 10 88 135 147 208 122 117 79 41 13 -5 9 36 32 15 36 49 54 50 36 29 38 40 34 26
165 192 192 211 225 202 183 183 140 172 93 162 159 165 140 99 96 55 24 26 83 172 188 212 249 223 130 64 47 17 22 26 30 10 21 37 41 48 36 25 30 40 39 40
159 205 185 208 192 172 176 138 177 262 102 100 158 144 191 184 105 -19 65 48 93 112 120 162 195 236 205 117 57 81 67 46 38 32 19 24 34 39 27 16 13 -13 -27 -29
205 246 199 257 167 154 170 191 244 224 86 113 133 106 297 182 120 36 71 84 51 113 135 136 201 278 274 242 219 97 121 100 40 39 39 21 20 20 9 -7 -17 -16 -20 -33
219 279 273 297 227 92 156 314 246 112 106 58 102 101 92 81 54 46 47 59 38 57 95 156 163 192 221 240 266 194 150 114 106 99 86 49 22 -0 -13 -8 -23 -23 -14 -19
190 216 257 237 285 174 55 166 34 128 125 119 111 108 77 69 70 53 28 72 74 38 73 100 127 151 193 198 258 293 214 164 176 147 121 89 66 44 28 22 -2 -18 -25 -33
183 164 211 242 213 239 63 57 91 93 103 87 83 66 86 79 39 46 51 44 63 35 63 89 138 161 164 172 182 276 321 204 210 188 157 135 127 96 65 44 39 31 18 -14
177 172 205 229 205 210 205 89 88 64 75 133 163 118 109 121 86 52 93 103 116 84 85 71 117 120 137 179 145 203 266 290 199 211 166 165 154 157 127 94 106 83 29 67
153 189 235 206 228 206 91 -13 93 148 156 154 143 118 120 108 97 99 90 64 72 52 55 73 85 121 111 145 161 195 285 278 296 244 208 143 146 164 161 150 96 28 31 79
Wind_Speed
24 28 27 29 33 37 41 48 48 55 62 46 43 31 69 36 17 12 12 8 9 13 22 27 30 32 33 38 39 41 42 44 36 34 32 30 25 18 18 22 30 26 31 40
21 29 26 37 40 40 42 51 58 70 61 40 58 73 71 37 15 6 8 6 5 11 19 23 27 29 31 38 33 36 38 41 35 29 31 28 20 25 28 27 31 30 33 53
23 26 27 24 29 35 42 50 61 69 64 52 51 56 67 50 34 19 16 10 6 3 12 18 23 26 28 37 36 34 34 33 27 18 28 30 32 33 43 34 34 34 45 50
20 26 16 17 19 29 27 51 53 61 60 57 41 68 60 51 50 30 14 10 6 5 8 14 20 23 26 32 36 40 34 31 29 25 29 34 29 45 44 44 43 43 45 42
24 18 16 20 27 15 17 43 43 52 50 47 45 48 56 50 54 33 17 9 9 12 10 13 17 21 25 28 36 35 34 36 37 34 31 37 41 37 23 42 48 47 45 24
23 24 19 24 17 14 29 36 42 44 38 39 45 41 52 50 44 44 34 4 11 17 16 17 20 22 25 27 32 36 35 34 40 39 36 35 35 38 36 34 41 28 30 37
35 27 28 19 13 23 22 28 45 44 33 36 45 42 39 51 31 21 20 4 16 20 22 21 23 24 25 28 30 33 38 37 39 37 34 35 32 19 17 37 41 45 34 44
30 30 23 25 23 18 20 15 26 44 45 37 42 43 65 42 45 51 39 10 17 24 27 25 28 27 27 29 30 31 35 37 37 39 38 34 36 27 29 30 34 46 45 56
28 34 33 26 26 17 21 22 20 29 35 36 41 62 63 43 48 50 36 17 22 26 31 29 32 31 30 33 32 32 34 35 36 38 38 34 33 28 22 32 32 45 48 50
35 41 36 27 28 30 20 19 26 28 36 22 46 59 62 61 56 45 28 15 22 30 32 30 35 36 34 36 33 32 34 35 37 37 37 35 33 31 23 29 30 41 38 34
38 37 36 29 28 23 26 25 25 23 25 21 35 65 46 49 52 53 29 12 28 35 34 32 39 40 37 38 36 33 34 35 37 39 36 35 32 33 29 22 29 33 28 30
38 38 47 32 32 31 25 24 20 20 22 35 62 72 40 50 53 48 43 10 22 39 35 32 41 43 40 40 39 35 36 37 39 40 40 37 35 33 36 29 27 31 33 30
38 48 47 46 42 35 29 24 18 22 27 22 67 66 37 45 48 49 39 20 31 37 34 34 40 45 44 43 41 38 38 40 42 42 42 40 38 37 38 37 31 27 35 37
39 51 49 48 40 34 40 32 21 19 21 42 74 61 46 51 56 49 42 25 26 43 39 39 41 47 48 44 44 41 40 41 43 44 42 41 42 43 42 44 41 33 39 38
34 58 58 62 46 35 31 33 26 28 25 38 74 68 63 65 55 49 37 16 18 38 45 44 44 47 52 49 46 44 42 43 43 45 44 41 41 46 46 48 47 45 43 50
44 54 44 53 50 43 41 38 32 34 34 48 62 75 50 44 46 48 37 16 19 31 50 47 49 46 51 53 51 48 44 45 45 44 45 44 44 46 49 50 51 51 50 50
49 51 51 61 44 42 54 41 35 33 32 33 77 76 44 45 54 57 55 31 13 21 46 56 48 51 50 53 55 54 49 44 46 47 46 46 46 49 50 51 52 52 52 51
53 49 49 51 40 53 55 29 32 36 35 35 67 55 46 63 67 61 34 38 24 7 45 45 56 50 50 49 56 59 53 47 47 50 49 49 49 50 52 53 54 54 53 52
62 56 56 56 58 61 57 37 25 29 32 34 64 57 47 49 51 57 43 53 64 25 29 48 45 50 44 52 53 62 58 52 49 52 52 50 48 50 52 54 55 54 54 53
65 65 63 56 64 65 57 33 36 39 56 41 42 55 35 38 45 59 42 48 63 59 22 27 34 36 40 49 50 51 59 55 52 50 53 51 48 50 52 53 51 49 42 41
78 72 76 73 70 70 53 32 29 42 52 31 24 43 40 48 31 69 52 42 45 61 32 14 15 34 46 38 42 49 45 53 55 46 48 51 48 47 48 48 48 47 45 41
80 80 80 74 77 82 45 34 45 51 52 41 30 35 21 22 38 57 36 35 50 55 25 18 17 19 24 31 42 42 41 32 26 27 32 37 40 39 37 40 38 37 37 37
86 78 80 76 77 45 34 44 40 37 42 40 35 38 35 35 38 56 57 49 55 58 16 15 17 19 21 29 41 42 33 26 25 24 23 25 25 27 26 30 30 25 26 28
79 67 71 71 75 74 47 49 43 38 38 40 37 31 31 46 61 71 70 65 52 34 13 14 17 20 25 29 37 41 30 27 29 27 25 23 21 20 18 18 21 22 22 21
89 76 86 80 64 66 70 57 45 44 39 37 34 40 42 45 45 52 59 66 62 50 35 17 19 22 27 27 33 28 31 33 29 27 25 25 24 24 22 22 22 23 24 23
76 81 86 92 82 67 63 58 54 55 54 48 45 42 38 35 38 45 53 56 49 33 45 42 28 24 24 29 32 31 31 38 36 29 27 27 25 24 23 23 23 25 26 32
Wind_Direction
279 273 259 277 287 296 302 307 310 312 310 318 316 321 268 330 323 328 335 348 8 19 25 32 36 39 43 42 43 47 52 53 63 70 79 92 101 125 142 132 118 131 135 147
275 225 273 284 288 295 301 305 305 297 309 320 310 297 302 330 329 281 315 335 15 28 26 35 40 44 49 44 53 56 60 61 73 90 97 103 115 119 127 134 122 117 140 140
229 282 280 279 289 295 301 305 301 300 308 312 312 310 303 320 330 341 325 326 341 47 36 46 48 54 57 49 56 65 72 76 91 121 110 104 104 115 113 129 125 125 131 122
236 276 245 265 272 294 293 304 303 306 313 313 319 307 307 319 317 334 324 297 246 163 57 65 61 65 68 61 60 61 83 86 102 124 120 116 109 106 117 122 124 129 126 128
219 254 225 216 212 276 268 307 315 314 315 317 316 314 308 320 316 334 322 295 194 167 126 101 88 87 80 81 66 77 93 91 105 125 132 116 104 118 150 128 124 126 129 148
227 274 246 213 221 262 304 313 318 321 322 316 317 313 309 315 328 337 347 333 171 159 139 120 111 100 87 100 84 77 94 106 105 122 128 121 116 116 131 130 96 162 160 138
273 265 273 268 256 306 312 321 315 318 320 318 316 316 323 320 342 349 350 31 157 149 141 131 127 117 103 113 110 94 77 100 109 131 140 129 129 146 145 123 123 120 158 152
249 260 248 277 261 277 296 305 315 315 316 318 318 317 305 336 339 334 344 32 132 141 143 138 138 128 119 124 121 108 97 98 114 124 136 144 132 145 134 135 134 122 141 130
251 263 283 263 276 261 296 297 320 317 323 319 313 295 304 330 330 337 359 38 133 139 145 142 144 138 130 136 129 126 125 112 128 142 141 157 156 163 164 138 144 132 141 140
263 281 275 268 273 275 257 297 308 326 318 306 307 293 290 301 316 338 360 61 131 141 144 143 149 147 141 147 133 119 135 129 127 159 163 166 172 172 185 157 160 150 152 158
254 258 282 269 250 245 282 284 301 314 316 300 303 269 313 315 312 306 355 75 143 147 146 143 153 152 149 152 142 128 128 135 139 153 185 180 182 179 186 193 173 168 182 176
239 257 263 259 279 273 254 247 251 265 299 307 276 256 308 296 296 320 295 76 135 156 142 139 153 153 151 155 145 135 130 132 151 152 170 180 180 183 177 184 184 172 176 174
229 255 258 269 271 278 274 277 262 291 299 276 258 267 304 306 308 310 309 127 147 154 147 141 151 157 155 155 149 139 133 138 148 154 154 172 182 180 177 173 179 186 173 169
225 249 247 235 267 275 272 274 264 258 269 283 244 272 290 293 301 292 285 292 138 161 156 149 155 163 163 156 154 145 140 140 145 159 165 167 172 177 174 168 169 182 175 175
241 252 255 265 267 259 253 255 241 241 235 272 249 261 279 281 295 271 291 331 123 158 167 164 160 164 169 163 159 155 147 143 144 157 165 168 170 167 171 165 167 171 172 161
254 257 259 264 261 259 260 232 233 225 273 273 267 252 292 295 284 267 287 306 149 159 178 175 172 163 169 171 166 162 152 149 148 148 155 154 155 168 170 167 166 166 168 166
253 256 258 264 266 263 233 230 234 256 262 259 255 247 287 287 269 265 262 290 276 161 174 182 173 172 169 170 171 170 161 150 152 153 150 151 150 152 169 172 171 171 169 170
252 254 260 263 257 255 274 252 229 232 254 260 262 271 280 258 254 258 277 281 279 246 172 174 183 174 172 168 172 176 168 155 154 160 154 154 153 152 162 168 167 169 171 168
249 251 256 255 254 270 270 268 250 261 261 252 262 272 282 276 274 250 263 257 243 184 170 178 176 177 167 170 168 175 171 163 159 164 162 155 149 149 153 161 165 177 168 166
247 247 249 254 256 254 264 263 267 271 272 269 264 265 274 271 265 192 268 274 255 256 249 175 172 171 170 172 168 167 172 168 165 161 164 159 152 150 153 154 148 143 129 129
238 241 241 249 256 263 263 255 255 258 273 278 261 267 270 262 249 243 272 282 280 253 255 216 191 173 177 172 169 171 169 171 171 159 158 161 156 153 152 148 149 147 145 139
235 234 240 246 250 256 254 247 245 264 264 279 278 271 273 252 251 249 273 279 275 255 249 203 200 206 180 178 174 176 178 179 174 162 155 155 155 152 148 150 145 142 141 144
236 237 236 241 246 265 242 252 256 264 273 276 277 279 274 266 258 259 268 267 257 241 249 204 186 201 200 180 177 180 183 196 192 185 179 169 162 159 156 156 155 148 146 148
240 240 241 244 248 249 252 259 258 262 272 273 280 284 276 267 261 254 256 252 257 269 255 225 214 208 192 187 180 183 185 190 191 201 202 198 192 184 180 179 174 170 167 167
239 238 240 243 250 246 246 245 250 254 270 272 283 282 278 272 277 269 261 252 254 264 269 239 204 208 199 205 193 196 190 184 191 197 205 209 207 202 201 198 195 193 191 189
239 238 236 241 240 244 244 244 253 261 266 272 276 280 279 273 280 278 267 262 262 268 264 262 257 232 209 209 214 208 204 193 192 197 205 209 216 220 223 221 228 219 210 204